Погода в Цимлянске

Погода в Цимлянске : погода сейчас, прогноз погоды и архив. Всё, что Вы хотите узнать о погоде в Цимлянске!

Хотите узнать прогноз погоды в Цимлянске? Тогда Вам сюда: Погода в Цимлянске

Поиск расширенной информации на нашем сайте:

Другие новости

Новости СМИ2

Главная страница сайта

Новости сайта

02.10.2013

Напоминаем, что на нашем новом сайте вы можете получить высокодетализированные прогнозы погоды по пунктам России, СНГ и мира (включающие важные для авиации метеовеличины, такие как направление и скорость ветра, видимость, явления погоды, количество и форма облачности, нижняя и верхняя граница облачности), а также ознакомиться с разнообразными материалами по авиационной метеорологии и подборкой полезных ссылок на эту тему.

Сайт Метеоцентр.Азия посвящён разработке технологий оптимизации авиаметеорологического обслуживания, включая проектирование и перспективное создание нескольких автоматизированных авиаметеорологических систем:
- система выпуска высокодетальных прогностических карт явлений погоды для нижнего воздушного пространства по России и ближнему зарубежью;
- система верификации прогнозов TAF (выпускаемых синоптиками официальных АМСГ РФ и ближнего зарубежья) и AUTOTAF (выпускаемых сайтом Метеоцентр.Азия) - выявление ошибок, онлайн-сопоставление с фактической погодой METAR, автоматическое внесение коррективов в прогнозы при резком отклонении фактической погоды от прогноза, подсчёт оправдываемости прогнозов по элементам и в целом;
- система обработки, анализа и отображения авиаметеорологической информации для применения провайдерами метеорологической информации.


Погода в Цимлянске - сегодня

Время (UTC), дата Ветер
(°,м/с) 
Видим.   Явления Облачность Т
(°С)
Тd
(°С)
f(%) Тe
(°С)
Pmin
(гПа)
dP
(гПа)
Po
(мм)
O2
(г/м3)
Тmin Tmax R s Состояние
почвы
18 22.05.17 020 (С) 20000 м  {ливн. осадки}  8/0 средняя 
[Ac As]
+12 +10 88 +13  1010.6  1.8  752  288           
21 22.05.17 360 (С) 20000 м    3/0 средняя 
[Ac trans]
+10.4 +9 91 +12  1011.5  0.9  753  291           
00 23.05.17 360 (С) 20000 м    4/0 средняя 
[Ac trans]
+10 +8.7 92 +10  1012  0.5  753  291           
03 23.05.17 360 (С) 20000 м    10/0 средняя, верхняя 
[Ac As|Ci]
+11.1 +5.1 66 +11  1013.1  1.1  754  291  +10    0.3    влажная 
06 23.05.17 020 (С) 20000 м    10/0 средняя, верхняя 
[Ac trans|Ci sp]
+15.9 +5.2 49 +17  1014.5  1.6  755  287           
09 23.05.17 050 (СВ) 20000 м    8/3 1000 м верхняя 
[Cu hum|Ci fib]
+17 +3.7 41 +18  1015.8  0.8  756  286           
12 23.05.17 070 (В) 20000 м    8/0 средняя, верхняя 
[Ac trans|Ci fib]
+17.2 +4.4 43 +18  1015.6  -0.2  756  286           
15 23.05.17 080 (В) 20000 м    4/0 средняя, верхняя 
[Ac trans|Ci fib]
+15.8 +6.8 55 +17  1015.8  0.2  756  287    +17.8       
18 23.05.17 020 (С) 20000 м    4/0 верхняя 
[Ci fib]
+12.6 +6.6 67 +14  1017.8  1.9  757  291           
21 23.05.17 020 (С) 20000 м    ясно 
+12.3 +3.1 53 +13  1018.2  0.3  758  292           
00 24.05.17 040 (СВ) 20000 м    ясно 
+11.7 +7.3 74 +12  1018.7  0.5  758  292           
03 24.05.17 050 (СВ) 20000 м    3/0 средняя 
[Ac trans]
+13.3 +7.3 67 +15  1019.4  0.7  759  290  +11.2        влажная 
06 24.05.17 070 (В) 20000 м    5/0 верхняя 
[Ci fib]
+15 +6.1 55 +16  1020.2  0.8  759  289           
09 24.05.17 060 (СВ) 20000 м    6/1 1000 м верхняя 
[Cu hum|Ci]
+18.5 +3.1 36 +19  1019.9  0.1  759  286           
12 24.05.17 060 (СВ) 20000 м    9/0 верхняя 
[Cs]
+19.1 +3.6 36 +20  1019.1  -0.8  758  285           
15 24.05.17 060 (СВ) 20000 м    10/0 средняя, верхняя 
[As op|Ci fib]
+18.9 +3.4 36 +20  1018.8  -0.3  758  285    +19.8       
18 24.05.17 210 (ЮЗ) 20000 м    10/0 средняя 
[Ac trans]
+14.6 +4.7 51 +16  1019.9  759  290           
21 24.05.17 220 (ЮЗ) 20000 м    9/0 средняя 
[Ac trans]
+12.7 +8.8 77 +13  1020.9  0.9  760  291           
00 25.05.17 250 (З) н/о    н/о 
+11.4 +8 80 +11  1020.6  -0.3  759  292           
03 25.05.17 310 (СЗ) 20000 м    10/4 1000 м средняя 
[Sc|Ac und]
+11.8 +8 78 +12  1020.3  -0.3  759  292  +11.2        сухая 
06 25.05.17 230 (ЮЗ) 20000 м    10/5 1000 м средняя 
[Sc|Ac und]
+14.9 +9.1 68 +16  1021  0.7  760  289           
09 25.05.17 150 (ЮВ) 20000 м    10/0 средняя, верхняя 
[Ac cast|Ci fib]
+19 +4.8 39 +20  1019.9  -0.9  759  285           
12 25.05.17 150 (ЮВ) 20000 м    10/0 средняя, верхняя 
[Ac cast|Ci fib]
+18.8 +6.4 44 +20  1019.4  -0.5  759  285           
15 25.05.17 220 (ЮЗ) 20000 м    10/0 средняя, верхняя 
[Ac lent|Ci fib]
+18.2 +6 45 +20  1018.7  -0.7  758  285    +19.9       
18 25.05.17 300 (СЗ) 20000 м    10/0 средняя, верхняя 
[Ac trans|Ci fib]
+14.4 +8.3 67 +15  1018.6  -0.2  758  289           
Время (UTC), дата Ветер
(°,м/с) 
Видим.   Явления Облачность Т
(°С)
Тd
(°С)
f(%) Тe
(°С)
Pmin
(гПа)
dP
(гПа)
Po
(мм)
O2
(г/м3)
Тmin Tmax R s Состояние
почвы

Для получения пояснительной информации подведите курсор к названию столбца.

ПОГОДА в Цимлянске - архив

Всё, что Вы хотите узнать о погоде в Цимлянске - удобно и подробно!

Выберите нужную дату (начиная с 1 января 2015* года) и нажмите кнопку "Найти".
Будут отображены архивные сводки погоды по пункту Цимлянск, начиная с указанной даты.


Отображать данные в формате CSV (для использования в таблицах Excel)


Внимание! Наш архив погоды предназначен исключительно для личного некоммерческого использования в познавательных целях. Если Вам необходимы официальные справки о состоянии погоды (для производственных, юридических, коммерческих и т.п. целей), обращайтесь в органы Росгидромета.

*Примечание: данная дата относится к архиву по метеостанциям СССР (Россия, СНГ, Балтия).
Архив по метеостанциям Зарубежной Европы и Азии (кроме Китая) хранится 10 дней, по другим регионам земного шара (Китай, Африка, Америка, Австралия, Океания) - 1 день.

Цимлянск - район местоположения метеостанции


Название, широта, долгота, высота метеостанции:
Цимлянск 47.6°ш. 42.1°д. 65 м над ур. моря [Российская Федерация]

Дополнительная информация

В oтличие oт бoльшинства пoгoдных сайтoв мы публикуем пoдрoбную метеoинфoрмацию в детальнoм прoфессиoнальнoм фoрмате.

Характеристики температуры и влажнoсти вoздуха измеряются на высoте 2 м в тени вдали oт зданий и деревьев.
Скoрoсть ветра измеряется на высoте 10 м (на урoвне рoста челoвека скoрoсть ветра ниже в 1.5-2 раза). Если метеoстанция нахoдится в гoрoде или в лесу, тo скoрoсть ветра занижена на 2-4 м/с пo сравнению с oткрытым местoм. Скoрoсть ветра над акватoриями крупных рек и oзёр, а также на вершинах хoлмoв на 2-5 м/с выше, чем в oбычных услoвиях.
Атмoсфернoе давление в разных тoчках местнoсти мoжет значительнo oтличаться oт давления на метеoстанции, в зависимoсти oт услoвий рельефа (при пoдъёме на 10 м давление пoнижается примернo на 1 мм рт.ст.).